Regional Weather Roundup
Issued by NWS Wilmington, NC

Home | Current Version | Previous Version | Text Only | Print | Product List | Glossary On
Versions: 1 2 3 4 5 6 7 8 9 10 11 12 13 14 15 16 17 18 19 20 21 22 23 24 25 26 27 28
000
ASUS42 KILM 240010
RWRILM
RWRILM
REGIONAL HOURLY WEATHER ROUNDUP
NATIONAL WEATHER SERVICE WILMINGTON NC
800 PM EDT WED APR 23 2014

NOTE: "FAIR" INDICATES FEW OR NO CLOUDS BELOW 12,000 FEET WITH NO
SIGNIFICANT WEATHER AND/OR OBSTRUCTIONS TO VISIBILITY.

...............WFO WILMINGTON COUNTY WARNING AREA...............

......COASTAL NC AND SC COUNTIES......

CITY           SKY/WX    TMP DP  RH WIND       PRES   REMARKS
WILMINGTON     CLEAR     69  35  28 N9        29.86R
SOUTHPORT      CLEAR     68  51  54 SW6       29.85R
N MYRTLE BEACH CLEAR     66  61  84 CALM      29.85R
MYRTLE BEACH   CLEAR     68  61  77 VRB7      29.83

......INLAND NC AND SC COUNTIES.......

CITY           SKY/WX    TMP DP  RH WIND       PRES   REMARKS
LUMBERTON      CLEAR     63  42  46 CALM      29.85R
ELIZABETHTOWN  CLEAR     67  36  31 CALM      29.86R
WHITEVILLE     CLEAR     69  38  31 CALM      29.85R
FLORENCE       CLEAR     72  32  23 NE8       29.85R
DARLINGTON     CLEAR     70  37  30 NE3       29.87R

....................REST OF NORTH CAROLINA......................

.........EASTERN NC.........

CITY           SKY/WX    TMP DP  RH WIND       PRES   REMARKS
CAPE HATTERAS  CLEAR     53  40  61 E5        29.86R
JACKSONVILLE   CLEAR     66  52  59 W3        29.88R
MOREHEAD CITY  CLEAR     65  43  44 N9        29.85R
KENANSVILLE    CLEAR     60  35  39 CALM      29.88R
NEW BERN       CLEAR     65  35  33 NW3       29.87R
ELIZABETH CITY CLEAR     62  39  42 N7        29.85R

.........CENTRAL NC.........

CITY           SKY/WX    TMP DP  RH WIND       PRES   REMARKS
RALEIGH DURHAM PTCLDY    66  26  22 CALM      29.87R
ROCKY MOUNT    CLEAR     65  31  28 CALM      29.86R
ROANOKE RAPIDS NOT AVBL
FAYETTEVILLE   CLEAR     66  30  26 N5        29.86R
HOFFMAN        CLEAR     69  32  25 NW1       29.88R

.........WESTERN NC.........

CITY           SKY/WX    TMP DP  RH WIND       PRES   REMARKS
CHARLOTTE      PTCLDY    65  29  25 N6        29.89R
GREENSBORO     PTCLDY    67  21  17 NW8       29.89R
HICKORY        NOT AVBL
BOONE          NOT AVBL
ASHEVILLE      NOT AVBL

.....................REST OF SOUTH CAROLINA.....................

.........EASTERN SC.........

CITY           SKY/WX    TMP DP  RH WIND       PRES   REMARKS
CHARLESTON     CLEAR     75  53  46 NE6       29.84R
BEAUFORT MCAS  CLEAR     78  48  34 NW3       29.84R
HILTON HEAD    NOT AVBL

.........CENTRAL SC.........

CITY           SKY/WX    TMP DP  RH WIND       PRES   REMARKS
COLUMBIA       CLEAR     75  36  24 W3        29.84R
ORANGEBURG     CLEAR     78  40  25 N3        29.85R
SUMTER SHAW    CLEAR     73  36  25 N6        29.84R

.........WESTERN SC.........

CITY           SKY/WX    TMP DP  RH WIND       PRES   REMARKS
GREENVILLE     NOT AVBL
ROCK HILL      CLEAR     68  34  28 CALM      29.88R
ANDERSON       CLEAR     73  41  31 SE6       29.86R
CLEMSON        NOT AVBL
GREENWOOD      CLEAR     71  47  42 CALM      29.87R


...................COASTAL AND OFFSHORE REPORTS..................

................LOCAL PIERS AND NC RESERVE................


STATION/POSITION TIME  SKY/WX   TEMP    WIND        PRES    VSBY
                                AIR SEA DIR/SP/G
                 (UTC)          (F)     (DEG/KT/KT) (MB)    (MI)
JOHNY MRCER PIER 0000            70 61   10/ 10/ 12 1010.2R
NC RESRV MASNBRO NOT AVBL
OCEAN CREST PIER 0000               60  260/  9/ 10 1009.5R
SPRINGMAID  PIER 0000            66 63     CALM     1010.3R


................COASTAL AND OFFSHORE BUOYS................


STATION/POSITION TIME  SKY/WX   TEMP    WIND        PRES    VSBY
                                AIR SEA DIR/SP/G
                 (UTC)          (F)     (DEG/KT/KT) (MB)    (MI)
DIMNDSHOAL 41025 0000            62 75   30/  8/ 12 1010.8R
WVE H/P(F/S)=  5/ 8 WND WVE H/P(F/S)=  2/ 4 SWL H/P/D(F/S/D)=  5/ 50/ 8

CAPE LOOKOUT     2300            63     110/  2/  3 1009.9R
ONSLOW BAY 41036 2300            70 71  330/ 16/ 19 1010.2R
5 WRITEBCH 41038 2300            65 63   90/  4/  6 1009.9R
MASONBORO  41110 0000               64                N/A
WVE H/P(F/S)=  2/ 9 WND WVE H/P(F/S)=  2/ 9

WILM HARBR 41108 2300               64                N/A
WVE H/P(F/S)=  2/ 8 WND WVE H/P(F/S)=  2/ 8

27WRITEBCH 41037 2300            67     250/  6/  6 1009.9R
FRYING PAN 41013 0000            68 68  260/ 12/ 14 1010.1R
WVE H/P(F/S)=  2/ 8 WND WVE H/P(F/S)=  2/ 5 SWL H/P/D(F/S/D)=  2/120/ 8

SUNST NRSH 41024 2300            66     250/  6/  8 1010.1R
CAPRS NRSH 41029 NOT AVBL
EDISTO     41004 0000            69 67  250/  4/  6 1010.3R
WVE H/P(F/S)=  2/ 5 WND WVE H/P(F/S)=  2/ 4 SWL H/P/D(F/S/D)=  2/ 5



..........OFFSHORE BUOYS BEYOND 100 NM OFFSHORE...........
.....IN A TRIANGLE---HAT TO BERMUDA TO BAHAMAS TO HAT.....


STATION/POSITION TIME  SKY/WX   TEMP    WIND        PRES    VSBY
                                AIR SEA DIR/SP/G
                 (UTC)          (F)     (DEG/KT/KT) (MB)    (MI)
150E HAT   41001 NOT AVBL
W BERMUDA  41048 2249            71 70  250/ 17/ 19 1006.4R
WVE H/P(F/S)=  5/ 6 WND WVE H/P(F/S)=  5/ 6 SWL H/P/D(F/S/D)=  2/140/ 8

ATLANTIC S 41049 NOT AVBL
E BAHAMAS  41046 NOT AVBL
NE BAHAMAS 41047 2241            75 75  280/ 14/ 16 1012.2R
WVE H/P(F/S)=  4/ 7 WND WVE H/P(F/S)=  3/ 4 SWL H/P/D(F/S/D)=  3/ 10/ 7

120E CANVRL41010 0000            74 75  270/  4/  6 1013.0R
WVE H/P(F/S)=  3/ 8 WND WVE H/P(F/S)=  2/ 4 SWL H/P/D(F/S/D)=  3/ 70/ 8


END



USA.gov is the U.S. government's official web portal to all federal, state and local government web resources and services.